DELTA 1 DEB, 7015

Orbit data source: Space-Track

DELTA 1 DEB, 7015 is space debris in LEO originally from a launch on Tue, 06 Nov 1973 UTC launched from the Air Force Western Test Range (AFWTR). Debris objects in space refer to the collection of defunct objects orbiting the Earth. Examples of debris include non-operational satellites, rocket bodies, and fragments generated from explosions, collisions, or faulty payload assembly.

Loading next visibility...
Identifier
7015, 1973-086F
Orbit
LEO
Country
Flag of USUS
Related business
Manufacturer
Unknown
Mission
Spacecraft
Bus & Motor
Unknown
Mass
Unknown
Launch date (UTC)
1973-11-06 (52 years ago)
Launch vehicle
Unknown
Launch site
Air Force Western Test Range (AFWTR)
Object type
Payload
Rocket body
Debris
Shape & HBR
Unknown shape, 0.4 m
Radar Cross Section
Medium (>0.1 m² and <1 m²)

Expand to show TLE details & history
Last TLE update: 8 hours ago

TLE from 8 hours ago
0 DELTA 1 DEB
1  7015U 73086F   25295.17409666 -.00000022  00000-0  17495-3 0  9993
2  7015 101.7442 118.6938 0401398  41.1731  42.6217 11.66260004212061
Epoch: 2025-10-22T04:10Z
TLE epoch observation values (Epoch: 2025-10-22T04:10:41.951Z)
Latitude
77.94663°
Longitude
-50.50049°
Altitude
1,612.283 km
Speed
7.172 km/s
True Right ascension
02h 52m 06s
True Declination
77° 53' 01"
Sunlit
Object was in daylight at epoch
Visualization orbit readout
Latitude
Unknown
Longitude
Unknown
Altitude
Unknown
Speed
Unknown
Apparent Right ascension
Unknown
Apparent Declination
Unknown
Sunlit
N/A
Visualization observer readout
Local Sidereal Time
07:35:14
Azimuth
Unknown
Elevation
Unknown
Doppler factor
Unknown
Orbital elements
Apogee altitude
2,162.806 km
Perigee altitude
1,503.602 km
Semi-major axis
8,211.341 km
Eccentricity
0.04014
Inclination
101.7442°
RAAN
118.6938°
Arg. of periapsis
41.1731°
True anomaly
45.85389°
Mean anomaly
42.6217°
Eccentric anomaly
44.22581°
Mean motion
2.9169 °/min
Orbital period
123.42 mins
BSTAR
0.00017495
Loading maneuver chart data...
Computing Atmospheric mass density...
Loading historical data...
Loading historical data...
Loading historical data...
Loading historical data...
Loading historical data...
Loading historical data...
Loading historical data...

Documentation

Showing up to 5 results
|